Regional Weather Roundup
Issued by NWS

Home | Current Version | Previous Version | Text Only | Print | Product List | Glossary Off
Versions: 1 2 3 4 5 6 7 8 9 10 11 12 13 14 15 16 17 18 19 20 21 22 23 24 25 26 27 28 29 30 31 32 33 34 35 36 37 38 39 40 41 42 43 44 45 46 47 48 49 50

000
ASUS45 KTFX 062019
RWRMT
MONTANA HOURLY WEATHER ROUNDUP
NATIONAL WEATHER SERVICE GREAT FALLS MT
119 PM MST FRI MAR 6 2015

NOTE: "FAIR" INDICATES FEW OR NO CLOUDS BELOW 12000 FEET WITH NO
SIGNIFICANT WEATHER AND/OR OBSTRUCTIONS TO VISIBILITY.

* THESE STATIONS ARE NOT UNDER NWS QUALITY CONTROL. THEY DO NOT
   REPORT WEATHER SUCH AS PRECIPITATION OR FOG.

MTZ001>007-043-062100-
WEST OF THE DIVIDE
CITY           SKY/WX    TMP DP  RH WIND       PRES   REMARKS
KALISPELL      SUNNY     46  23  40 NW5       30.32F
MISSOULA       PTCLDY    52  21  30 VRB5      30.36F
BUTTE          PTCLDY    50  18  28 W17G26    30.32S
MULLAN PASS    PTCLDY    41  18  39 VRB3      30.35S
* ESSEX        N/A       49  19  30 NE2G12     N/A
* EUREKA APT   SUNNY     55  21  27 SE3       30.28F
* HAMILTON APT SUNNY     59  16  18 NE2       30.34F
* LIBBY APT    SUNNY     48  21  34 CALM      30.31F
* LINCOLN      N/A       46  18  33 SW4G10     N/A
* LOOKOUT PASS N/A       49  20  32 E4G12      N/A
* POLSON       N/A       51  23  33 S3G8       N/A
* RONAN APT    SUNNY     55  21  27 N/A        N/A
* SEELEY LAKE  N/A       53  20  27 S3         N/A
* THOMP F APT  SUNNY     40  18  41 S4G11      N/A
* YAAK HILL    N/A       51  24  35 N1         N/A
$$

MTZ008-052>055-062100-
SOUTHWEST MONTANA
CITY           SKY/WX    TMP DP  RH WIND       PRES   REMARKS
BOZEMAN        PTSUNNY   54  18  24 W15       30.29F
DILLON         PTCLDY    52  16  24 SW13      30.33F
* W YELLOWSTON PTCLDY    40  16  38 SW6G13     N/A   WCI  36
* THREE FORKS  CLOUDY    54  18  24 W13G20     N/A
* BOULDER HILL N/A       47  15  28 NW4G10     N/A
* MONIDA PASS  N/A       46  14  27 NW20G27    N/A
* RAYNOLDS PAS N/A       32  13  45 SE17       N/A   WCI  21
* WHITEHALL    N/A       50  16  26 SW12G20    N/A
* WISE RIVER   N/A       50  14  24 W14G22     N/A
$$

MTZ009>010-012-014-046-048-049-054-062100-
EAST SLOPES AND CENTRAL MONTANA
CITY           SKY/WX    TMP DP  RH WIND       PRES   REMARKS
CUT BANK       CLOUDY    52  19  27 W29G39    30.13S
GREAT FALLS    PTCLDY    55  19  24 W23G32    30.15F
HELENA         CLOUDY    52  19  27 W8G18     30.25S
MALMSTROM AFB  PTCLDY    55  19  24 W17G26    30.17S
* CONRAD       CLOUDY    52  21  30 SW21G29    N/A
* DEARBORN     N/A       52  21  30 S15        N/A
* EAST GLACIER N/A       44  20  38 E8G19      N/A
* MONARCH      N/A       43  14  31 W30G35     N/A
* PENDROY      N/A       47  23  39 NW20G30    N/A
* ROGERS PASS  N/A       40  17  39 SE19G32    N/A   WCI  31
* SWEET GRASS  N/A       50  22  33 NW26G38    N/A
* WHITE SULPH  N/A       50  17  27 NW19G32    N/A
$$

MTZ011-013-016-021-035-040-045-047-050-051-062100-
NORTH CENTRAL MONTANA
CITY           SKY/WX    TMP DP  RH WIND       PRES   REMARKS
HAVRE          SUNNY     61  21  21 NW20G28   30.08S
LEWISTOWN      PTCLDY    54  27  35 NW28G37   30.13F
* N BAR RANCH  SUNNY     52  23  32 NW18G24   30.14F
* CHINOOK      SUNNY     57  23  27 W22G30    30.05S
* FORT BENTON  PTCLDY    61  19  20 W21G31    30.13F
* CHESTER      N/A       54  21  27 NW21G32    N/A
* DENTON       N/A       55  22  28 W26G35     N/A
* GEYSER       N/A       54  21  27 W26G38     N/A
* JUDITH GAP   N/A       51  24  35 NW15       N/A
* LOMA         N/A       58  21  24 NW20G29    N/A
$$

MTZ017>020-022>027-061-062-062100-
NORTHEAST MONTANA
CITY           SKY/WX    TMP DP  RH WIND       PRES   REMARKS
GLASGOW        CLOUDY    54  23  30 NW14      30.02F
GLENDIVE       CLOUDY    55  23  29 NW20G26   30.03F
JORDAN         PTCLDY    55  21  27 W23G30    30.06F
SIDNEY         PTCLDY    52  25  35 W18G26    30.01F
WOLF POINT     PTCLDY    54  27  35 W15       30.02S
* BEAVER HILL  N/A       53  21  29 W29G35     N/A
* CIRCLE       N/A       53  27  37 SW13G20    N/A
* LINDSAY DVD  N/A       51  22  32 W23G30     N/A
* NAVAJO       N/A       45  30  56 NW22G27    N/A
* PLENTYWOOD A PTSUNNY   45  30  56 W21       29.94F
* POPLAR APT   PTSUNNY   52  25  35 W16G23    30.00F
* SACO         N/A       56  24  29 W14G20     N/A
$$

MTZ028>042-056>058-062100-
SOUTHCENTRAL AND SOUTHEAST MONTANA
CITY           SKY/WX    TMP DP  RH WIND       PRES   REMARKS
BAKER          PTCLDY    54  21  27 W26G35    30.04F
BILLINGS       PTCLDY    59  18  20 W26G38    30.15F
LIVINGSTON     PTCLDY    55  16  21 W33G46    30.23S
MILES CITY     CLOUDY    57  21  25 N/A       30.07F
* BIG TIMBER A PTCLDY    52  16  24 W26G36    30.21S
* FORSYTH APT  SUNNY     59  21  23 W18G29    30.08F
* LAUREL APT   PTCLDY    57  18  22 W21G31     N/A
* ROUNDUP APT  PTCLDY    57  16  20 NW20G25    N/A
* ALZADA       N/A       53  21  29 W14G19     N/A
* HYSHAM       N/A       55  18  23 W20G30     N/A
* REED POINT   N/A       54  20  26 W18G27     N/A
* ROSCOE HILL  N/A       54   9  16 SW3G13     N/A
$$

REGIONAL REPORTS...DAKOTAS
CITY           SKY/WX    TMP DP  RH WIND       PRES   REMARKS
WILLISTON      PTSUNNY   45  27  49 SW14      29.96F
DICKINSON      PTSUNNY   54  19  25 W15       29.97F
BEACH          PTSUNNY   52  19  27 W28G35    30.01F
CROSBY         SUNNY     39  28  65 W18G23    29.92F WCI  30
TIOGA          SUNNY     37  27  67 SW13      29.95F WCI  29
WATFORD CITY   SUNNY     45  25  45 W12       29.96F
BISMARCK       CLOUDY    41  18  39 SW9       30.06F
GRAND FORKS    PTSUNNY   37  16  42 W9        30.03F WCI  30
FARGO          PTCLDY    37  19  48 W9        30.06F WCI  30
BUFFALO SD     SUNNY     54  18  24 NW25G38   29.98F
RAPID CITY     PTCLDY    57  18  22 N15       30.10F
$$

REGIONAL REPORTS...WYOMING/IDAHO/WASHINGTON
CITY           SKY/WX    TMP DP  RH WIND       PRES   REMARKS
GILLETTE       SUNNY     50  21  32 W16G28    30.17F
SHERIDAN       PTCLDY    52  27  38 W12       30.17F
CODY           PTCLDY    54  16  22 W10G20    30.21F
YELLOWSTONE LA SUNNY     34  16  48 VRB5      30.37F WCI  29
SALMON         SUNNY     46  18  33 CALM      30.40F
MULLAN PASS    PTCLDY    41  18  39 VRB3      30.35S
SAND POINT     SUNNY     48  32  54 E5        30.36F
SPOKANE        PTSUNNY   54  27  35 VRB7      30.37S
$$

REGIONAL REPORTS...ALBERTA
CITY           SKY/WX    TMP DP  RH WIND       PRES   REMARKS
CALGARY        PTCLDY    50  23  35 E13       30.07R
LETHBRIDGE     CLOUDY    54  21  27 W33G40    30.11F
MEDICINE HAT   PTCLDY    54  25  33 N16G24    30.09R
EDMONTON       PTSUNNY   41  25  53 NW23G31   30.07R
WATERTON GATE  N/A       41  21  45 SW22G29    N/A
CARDSTON       N/A       43  25  49 W18G28     N/A
MILK RIVER     N/A       48  27  44 W29G37     N/A
$$

REGIONAL REPORTS...SASKATCHEWAN
CITY           SKY/WX    TMP DP  RH WIND       PRES   REMARKS
SWIFT CURRENT  CLOUDY    39  30  70 W22       29.96R WCI  29
MOOSE JAW      PTCLDY    41  32  70 W24       29.88F
REGINA         PTSUNNY   37  32  82 W20       29.86S WCI  27
VAL MARIE      N/A       50  28  43 NW13       N/A
ASSINIBOIA     N/A       39  28  65 W18        N/A   WCI  30
CORONACH       N/A       45  32  60 W14        N/A

$$




USA.gov is the U.S. government's official web portal to all federal, state and local government web resources and services.